Location: Downe
(51.3167°N, 0.0500°E)
Time: 20:42:12
(UTC+00:00)

Cosmos 839 Rocket - Pass Details

Date: 17 November 2019
Orbit: 968 x 2084 km, 65.9° (Epoch: 10 December)

Event Time Altitude Azimuth Distance (km) Brightness Sun altitude
Exits shadow 05:14:11 25° 243° (WSW) 2,025 5.2 -19.4°
Maximum altitude 05:18:11 60° 316° (NW) 1,147 4.1 -18.7°
Drops below altitude 10° 05:24:18 10° 37° (NE) 2,721 6.7 -17.8°
Sets 05:26:50 0° 41° (NE) 3,676 7.5 -17.4°
